Location: Civry
(47.2902°N, 4.6156°E)
Time: 23:55:38
(UTC+00:00)

ARGOS Delta rocket - Pass Details

Date: 09 April 2020
Orbit: 634 x 839 km, 96.4° (Epoch: 03 June)

Event Time Altitude Azimuth Distance (km) Brightness Sun altitude
Rises 18:44:28 0° 164° (SSE) 3,296 7.0 -4.4°
Reaches altitude 10° 18:46:46 10° 164° (SSE) 2,392 6.3 -4.8°
Maximum altitude 18:52:07 84° 77° (ENE) 842 4.2 -5.6°
Drops below altitude 10° 18:57:39 10° 350° (N) 2,466 7.0 -6.5°
Sets 19:00:03 0° 350° (N) 3,405 7.8 -6.9°
